Location: Juniper Campground
(35.7953°N, 106.2814°W)
Time: 02:27:04
(UTC-07:00)

ISS - Visible Passes

Search period start: 23 January 2019 00:00
Search period end: 02 February 2019 00:00
Orbit: 404 x 411 km, 51.6° (Epoch: 23 January)

Date Brightness Start Highest point End Pass type
(mag) Time Alt. Az. Time Alt. Az. Time Alt. Az.
23 Jan -3.3 18:19:05 10° WSW 18:22:18 55° NW 18:24:44 16° NE visible
24 Jan -1.3 19:05:50 10° WNW 19:07:49 15° NNW 19:08:24 14° NNW visible
25 Jan -1.9 18:13:33 10° W 18:16:14 23° NNW 18:18:56 10° NNE visible
27 Jan -1.2 18:08:49 10° NW 18:10:18 12° NNW 18:11:48 10° N visible
